Lamar, CO

2:07 AM MST on January 22, 2017 (GMT -0700)
Lamar Municipal

Weather History for KLAA - September, 2013

Change the Weather History Date:

Friday, September 13, 2013

  Actual Average Record
Temperature  
Mean Temperature 69 °F 68 °F  
Max Temperature 78 °F 84 °F 101 °F (1922)
Min Temperature 60 °F 52 °F 32 °F (1945)
Degree Days  
Heating Degree Days 0 2  
Month to date heating degree days 0 13  
Since 1 July heating degree days 0 18  
Cooling Degree Days 4 4  
Month to date cooling degree days 163 76  
Year to date cooling degree days 1504 1065  
Growing Degree Days 18 (Base 50)    
Moisture  
Dew Point 62 °F    
Average Humidity 81    
Maximum Humidity 93    
Minimum Humidity 68    
Precipitation  
Precipitation 1.58 in 0.04 in 1.58 in (2013)
Month to date precipitation 2.00  
Year to date precipitation 8.68  
Sea Level Pressure  
Sea Level Pressure 30.02 in    
Wind  
Wind Speed 17 mph (SE)    
Max Wind Speed 29 mph    
Max Gust Speed 36 mph    
Visibility 4 miles    
Events Fog , Rain , Thunderstorm    
T = Trace of Precipitation, MM = Missing Value Source: NWS Daily Summary

Daily Weather History Graph

Daily Weather History Graph

Search for Another Location

Airport or City:

Trip Planner

Search our weather history database for the weather conditions in past years. The results will help you decide how hot, cold, wet, or windy it might be!

Date:

Astronomy

Sep. 13, 2013 Rise Set
Actual Time 6:31 AM MDT 7:01 PM MDT
Civil Twilight 6:04 AM MDT 7:27 PM MDT
Nautical Twilight 5:33 AM MDT 7:58 PM MDT
Astronomical Twilight 5:01 AM MDT 8:30 PM MDT
Moon 2:49 PM MDT (9/13) 12:06 AM MDT (9/13)
Length of Visible Light 13h 23m
Length of Day
12h 30m
Waxing Gibbous, 62% of the Moon is Illuminated
Sep 13
Waxing Gibbous
Sep 19
Full
Sep 26
Last Quarter
Oct 4
New
Oct 11
First Quarter

Hourly Weather History & Observations

Time (MDT) Temp. Dew Point Humidity Pressure Visibility Wind Dir Wind Speed Gust Speed Precip Events Conditions
12:09 AM 64.4 °F 62.6 °F 94% 30.18 in 2.0 mi ESE 17.3 mph 26.5 mph 0.06 in Rain Rain
12:29 AM 64.4 °F 62.6 °F 94% 30.17 in 4.0 mi ESE 16.1 mph 23.0 mph 0.08 in Rain Light Rain
12:53 AM 64.0 °F 62.1 °F 93% 30.05 in 5.0 mi ESE 13.8 mph 23.0 mph 0.09 in   Overcast
1:12 AM 64.4 °F 62.6 °F 94% 30.17 in 4.0 mi ESE 13.8 mph 21.9 mph 0.00 in Rain Light Rain
1:53 AM 66.9 °F 63.0 °F 87% 30.03 in 3.0 mi ESE 12.7 mph - 0.05 in Rain Light Rain
2:32 AM 64.4 °F 62.6 °F 94% 30.15 in 3.0 mi ESE 9.2 mph - 0.06 in Rain Light Rain
2:53 AM 64.9 °F 63.0 °F 93% 30.02 in 4.0 mi ESE 11.5 mph - 0.06 in Rain Light Rain
3:22 AM 64.4 °F 62.6 °F 94% 30.14 in 4.0 mi ESE 10.4 mph - 0.00 in   Mostly Cloudy
3:53 AM 64.9 °F 63.0 °F 93% 30.01 in 4.0 mi ESE 11.5 mph - 0.00 in   Overcast
4:22 AM 64.4 °F 62.6 °F 94% 30.13 in 4.0 mi ESE 10.4 mph - N/A   Overcast
4:53 AM 64.9 °F 63.0 °F 93% 30.02 in 4.0 mi SE 10.4 mph - N/A   Overcast
5:00 AM 64.4 °F 62.6 °F 94% 30.13 in 4.0 mi SE 11.5 mph - N/A   Overcast
5:53 AM 64.9 °F 63.0 °F 93% 30.01 in 4.0 mi SE 11.5 mph - N/A   Overcast
6:19 AM 66.2 °F 62.6 °F 88% 30.13 in 4.0 mi SE 10.4 mph - N/A   Overcast
6:53 AM 64.9 °F 63.0 °F 93% 30.02 in 3.0 mi SE 11.5 mph - N/A   Mostly Cloudy
7:53 AM 66.9 °F 63.0 °F 87% 30.01 in 4.0 mi SE 15.0 mph 24.2 mph N/A   Overcast
8:53 AM 68.0 °F 63.0 °F 84% 30.01 in 5.0 mi SSE 12.7 mph 23.0 mph 0.00 in   Haze
9:53 AM 72.0 °F 63.0 °F 73% 30.00 in 6.0 mi SSE 17.3 mph 24.2 mph N/A   Haze
10:20 AM 73.4 °F 62.6 °F 69% 30.12 in 6.0 mi SSE 17.3 mph 25.3 mph N/A   Haze
10:34 AM 71.6 °F 62.6 °F 73% 30.12 in 7.0 mi SSE 20.7 mph 26.5 mph N/A   Scattered Clouds
10:53 AM 73.9 °F 62.1 °F 66% 29.99 in 7.0 mi SSE 21.9 mph 28.8 mph N/A   Partly Cloudy
11:53 AM 73.0 °F 62.1 °F 68% 29.97 in 7.0 mi SSE 20.7 mph 29.9 mph N/A   Overcast
12:21 PM 73.4 °F 62.6 °F 69% 30.08 in 6.0 mi SSE 16.1 mph 26.5 mph 0.00 in Rain Light Rain
12:53 PM 73.0 °F 63.0 °F 71% 29.95 in 7.0 mi SSE 12.7 mph 21.9 mph 0.00 in   Overcast
1:38 PM 77.0 °F 64.4 °F 65% 30.04 in 6.0 mi SE 19.6 mph 26.5 mph N/A   Haze
1:53 PM 75.9 °F 64.0 °F 67% 29.91 in 6.0 mi SE 18.4 mph - N/A   Haze
2:53 PM 72.0 °F 64.0 °F 76% 29.90 in 5.0 mi ESE 21.9 mph 27.6 mph N/A   Haze
3:16 PM 69.8 °F 64.4 °F 83% 30.01 in 4.0 mi ESE 16.1 mph 26.5 mph N/A Thunderstorm Haze
3:33 PM 66.2 °F 60.8 °F 83% 30.06 in 1.2 mi WSW 16.1 mph 24.2 mph 0.11 in Rain , Thunderstorm Heavy Rain
3:35 PM 64.4 °F 59.0 °F 83% 30.06 in 0.8 mi WSW 10.4 mph 21.9 mph 0.19 in Rain , Thunderstorm Heavy Rain
3:50 PM 62.6 °F 59.0 °F 88% 30.05 in 0.5 mi Calm Calm - 0.49 in Fog , Rain , Thunderstorm Heavy Thunderstorms and Rain
3:53 PM 62.1 °F 59.0 °F 90% 29.94 in 0.5 mi North 5.8 mph - 0.51 in Fog , Rain , Thunderstorm Heavy Thunderstorms and Rain
3:57 PM 62.6 °F 59.0 °F 88% 30.05 in 1.2 mi Variable 4.6 mph - 0.00 in Rain , Thunderstorm Light Rain
3:59 PM 62.6 °F 59.0 °F 88% 30.05 in 2.0 mi Variable 3.5 mph - 0.00 in Rain , Thunderstorm Light Rain
4:07 PM 62.6 °F 60.8 °F 94% 30.06 in 1.2 mi Variable 6.9 mph - 0.10 in Rain , Thunderstorm Heavy Thunderstorms and Rain
4:14 PM 62.6 °F 59.0 °F 88% 30.06 in 0.2 mi SSW 28.8 mph 34.5 mph 0.34 in Fog , Rain , Thunderstorm Heavy Thunderstorms and Rain
4:22 PM 60.8 °F 59.0 °F 94% 30.05 in 0.5 mi SSE 17.3 mph 34.5 mph 0.59 in Fog , Rain , Thunderstorm Heavy Thunderstorms and Rain
4:29 PM 60.8 °F 59.0 °F 94% 30.04 in 0.8 mi SE 11.5 mph - 0.67 in Rain , Thunderstorm Heavy Thunderstorms and Rain
4:32 PM 60.8 °F 59.0 °F 94% 30.04 in 1.0 mi SE 12.7 mph - 0.68 in Rain , Thunderstorm Heavy Thunderstorms and Rain
4:35 PM 60.8 °F 59.0 °F 94% 30.03 in 1.5 mi SE 11.5 mph - 0.70 in Rain , Thunderstorm Heavy Thunderstorms and Rain
4:53 PM 63.0 °F 60.1 °F 90% 29.93 in 1.5 mi South 19.6 mph 28.8 mph 0.81 in Rain , Thunderstorm Heavy Rain
5:00 PM 62.6 °F 60.8 °F 94% 30.02 in 3.0 mi SSE 26.5 mph 34.5 mph 0.02 in Rain , Thunderstorm Thunderstorms and Rain
5:08 PM 62.6 °F 60.8 °F 94% 30.01 in 1.8 mi SSE 20.7 mph 33.4 mph 0.08 in Rain , Thunderstorm Heavy Thunderstorms and Rain
5:21 PM 62.6 °F 60.8 °F 94% 30.01 in 3.0 mi ESE 18.4 mph - 0.13 in Rain , Thunderstorm Light Thunderstorms and Rain
5:45 PM 60.8 °F 59.0 °F 94% 30.00 in 9.0 mi ESE 17.3 mph - 0.14 in Rain Light Rain
5:53 PM 62.1 °F 59.0 °F 90% 29.90 in 5.0 mi ESE 17.3 mph - 0.15 in Rain Light Rain
6:53 PM 64.0 °F 62.1 °F 93% 29.89 in 5.0 mi SE 19.6 mph 27.6 mph 0.00 in   Scattered Clouds
7:53 PM 64.0 °F 61.0 °F 90% 29.90 in 7.0 mi SE 23.0 mph 29.9 mph N/A   Mostly Cloudy
8:14 PM 64.4 °F 60.8 °F 88% 30.02 in 7.0 mi SE 20.7 mph 29.9 mph N/A   Overcast
8:53 PM 64.0 °F 61.0 °F 90% 29.91 in 8.0 mi SSE 21.9 mph 29.9 mph N/A   Mostly Cloudy
9:32 PM 64.4 °F 60.8 °F 88% 30.00 in 8.0 mi SSE 19.6 mph 29.9 mph N/A   Scattered Clouds
9:53 PM 64.0 °F 61.0 °F 90% 29.88 in 9.0 mi SSE 21.9 mph 28.8 mph N/A   Mostly Cloudy
10:40 PM 64.4 °F 60.8 °F 88% 30.00 in 9.0 mi SSE 20.7 mph 27.6 mph N/A   Mostly Cloudy
10:53 PM 64.9 °F 61.0 °F 87% 29.88 in 9.0 mi SSE 21.9 mph 29.9 mph N/A   Mostly Cloudy
11:02 PM 64.4 °F 60.8 °F 88% 29.99 in 9.0 mi South 23.0 mph 29.9 mph N/A   Partly Cloudy
11:53 PM 64.9 °F 61.0 °F 87% 29.88 in 10.0 mi SSE 19.6 mph 28.8 mph N/A   Clear